sat.trackr.live / text

‹ back to catalog

STARLINK-30298

NORAD 57665 · 2023-124C

PAYLOAD ACTIVE UNKNOWN

§ Identity

Operator
Country
US
Launch date
2023-08-22
Launch site
AFWTR
Launch vehicle
Mass (kg)
RCS (m²)

Purposes: comms

External: N2YO · Heavens-Above · Gunter

§ Orbital elements

Epoch: 2026-05-24T21:47:10.611744Z

Period
94.11 min
Inclination
53.1605°
Eccentricity
0.0001094
Mean motion
15.30186484 rev/d
Perigee alt
474.5 km
Apogee alt
476.0 km
Semi-major
6,853.4 km
B*
6.4551e-6
RAAN
213.0398°
Arg perigee
96.2708°
Mean anomaly
263.8417°
Rev number
15,523

§ Raw data

STARLINK-302981 57665U 23124C   26144.90776171 -.00000168  00000+0  64551-5 0  99972 57665  53.1605 213.0398 0001094  96.2708 263.8417 15.30186484155230

JSON: /api/v1/satellites/57665 · /tle

For live sub-satellite position, see the globe view (requires WebGL).

§ Visibility from observer

Set your observer location to see the next 7 days of passes ≥ 10°. The values pass through the URL so the page stays shareable.

No JS? Fill the form by hand. The geolocation button needs JavaScript.